Time,TemperatureF,DewpointF,PressureIn,WindDirection,WindDirectionDegrees,WindSpeedMPH,WindSpeedGustMPH,Humidity,HourlyPrecipIn,Conditions,Clouds,dailyrainin,SoftwareType,DateUTC
2013-08-11 00:00:00,81.7,77.1,30.08,WSW,248,8.0,15.0,86,0.00,,,0.00,WUHU216DAVISVP2,2013-08-11 04:00:00,
2013-08-11 00:01:00,81.7,77.1,30.08,WSW,250,9.0,12.0,86,0.00,,,0.00,Wunderground v.1.15,2013-08-11 04:01:00,
2013-08-11 00:11:00,81.7,77.1,30.07,West,264,10.0,10.0,86,0.00,,,0.00,Wunderground v.1.15,2013-08-11 04:11:00,
2013-08-11 00:16:00,81.7,77.5,30.07,WNW,284,10.0,13.0,87,0.00,,,0.00,Wunderground v.1.15,2013-08-11 04:16:00,
2013-08-11 00:21:00,81.7,77.5,30.07,SW,219,10.0,10.0,87,0.00,,,0.00,Wunderground v.1.15,2013-08-11 04:21:00,
2013-08-11 00:26:00,81.7,77.5,30.06,West,270,11.0,11.0,87,0.00,,,0.00,Wunderground v.1.15,2013-08-11 04:26:00,
2013-08-11 00:30:00,81.6,77.4,30.07,WSW,248,10.0,17.0,87,0.00,,,0.00,WUHU216DAVISVP2,2013-08-11 04:30:00,
2013-08-11 00:31:00,81.6,77.4,30.06,WSW,243,11.0,11.0,87,0.00,,,0.00,Wunderground v.1.15,2013-08-11 04:31:00,
2013-08-11 00:36:00,81.6,77.4,30.06,WSW,258,11.0,14.0,87,0.00,,,0.00,Wunderground v.1.15,2013-08-11 04:36:00,
2013-08-11 00:41:00,81.6,77.7,30.06,West,260,11.0,11.0,88,0.00,,,0.00,Wunderground v.1.15,2013-08-11 04:41:00,
2013-08-11 00:51:00,81.5,77.6,30.06,West,263,10.0,10.0,88,0.00,,,0.00,Wunderground v.1.15,2013-08-11 04:51:00,
2013-08-11 00:56:00,81.5,77.6,30.06,WSW,258,10.0,10.0,88,0.00,,,0.00,Wunderground v.1.15,2013-08-11 04:56:00,
2013-08-11 01:00:00,81.4,77.5,30.06,WSW,248,11.0,18.0,88,0.00,,,0.00,WUHU216DAVISVP2,2013-08-11 05:00:00,
2013-08-11 01:01:00,81.5,77.6,30.06,SW,235,11.0,11.0,88,0.00,,,0.00,Wunderground v.1.15,2013-08-11 05:01:00,
2013-08-11 01:11:00,81.5,77.6,30.06,West,263,11.0,12.0,88,0.00,,,0.00,Wunderground v.1.15,2013-08-11 05:11:00,
2013-08-11 01:16:00,81.4,77.5,30.06,WSW,242,10.0,12.0,88,0.00,,,0.00,Wunderground v.1.15,2013-08-11 05:16:00,
2013-08-11 01:21:00,81.4,77.5,30.05,West,270,11.0,11.0,88,0.00,,,0.00,Wunderground v.1.15,2013-08-11 05:21:00,
2013-08-11 01:30:00,81.4,77.5,30.05,WSW,248,11.0,18.0,88,0.00,,,0.00,WUHU216DAVISVP2,2013-08-11 05:30:00,
2013-08-11 01:31:00,81.4,77.5,30.05,WSW,244,11.0,11.0,88,0.00,,,0.00,Wunderground v.1.15,2013-08-11 05:31:00,
2013-08-11 01:36:00,81.4,77.5,30.05,WSW,243,11.0,14.0,88,0.00,,,0.00,Wunderground v.1.15,2013-08-11 05:36:00,
2013-08-11 01:41:00,81.4,77.5,30.05,WSW,247,11.0,11.0,88,0.00,,,0.00,Wunderground v.1.15,2013-08-11 05:41:00,
2013-08-11 01:46:00,81.3,77.4,30.05,SW,236,10.0,11.0,88,0.00,,,0.00,Wunderground v.1.15,2013-08-11 05:46:00,
2013-08-11 01:56:00,81.2,77.3,30.05,West,279,9.0,10.0,88,0.00,,,0.00,Wunderground v.1.15,2013-08-11 05:56:00,
2013-08-11 02:00:00,81.2,77.3,30.05,WSW,248,9.0,17.0,88,0.00,,,0.00,WUHU216DAVISVP2,2013-08-11 06:00:00,
2013-08-11 02:01:00,81.2,77.3,30.05,WSW,241,9.0,11.0,88,0.00,,,0.00,Wunderground v.1.15,2013-08-11 06:01:00,
2013-08-11 02:11:00,81.2,77.3,30.05,WSW,240,10.0,10.0,88,0.00,,,0.00,Wunderground v.1.15,2013-08-11 06:11:00,
2013-08-11 02:16:00,81.2,77.6,30.05,WSW,258,9.0,10.0,89,0.00,,,0.00,Wunderground v.1.15,2013-08-11 06:16:00,
2013-08-11 02:21:00,81.1,77.5,30.05,West,271,9.0,10.0,89,0.00,,,0.00,Wunderground v.1.15,2013-08-11 06:21:00,
2013-08-11 02:30:00,81.1,77.5,30.04,WSW,248,10.0,17.0,89,0.00,,,0.00,WUHU216DAVISVP2,2013-08-11 06:30:00,
2013-08-11 02:31:00,81.1,77.5,30.05,WSW,253,10.0,10.0,89,0.00,,,0.00,Wunderground v.1.15,2013-08-11 06:31:00,
2013-08-11 02:36:00,81.1,77.5,30.04,SW,233,9.0,12.0,89,0.00,,,0.00,Wunderground v.1.15,2013-08-11 06:36:00,
2013-08-11 02:41:00,81.1,77.5,30.05,SW,229,9.0,11.0,89,0.00,,,0.00,Wunderground v.1.15,2013-08-11 06:41:00,
2013-08-11 02:46:00,81.0,77.4,30.05,WSW,249,9.0,11.0,89,0.00,,,0.00,Wunderground v.1.15,2013-08-11 06:46:00,
2013-08-11 02:56:00,80.9,77.7,30.05,WNW,287,7.0,8.0,90,0.00,,,0.00,Wunderground v.1.15,2013-08-11 06:56:00,
2013-08-11 03:00:00,80.9,77.7,30.05,West,270,8.0,15.0,90,0.00,,,0.00,WUHU216DAVISVP2,2013-08-11 07:00:00,
2013-08-11 03:01:00,80.9,77.7,30.05,West,277,6.0,6.0,90,0.00,,,0.00,Wunderground v.1.15,2013-08-11 07:01:00,
2013-08-11 03:11:00,80.8,77.6,30.05,WSW,254,6.0,6.0,90,0.00,,,0.00,Wunderground v.1.15,2013-08-11 07:11:00,
2013-08-11 03:16:00,80.7,77.5,30.06,West,261,6.0,9.0,90,0.00,,,0.00,Wunderground v.1.15,2013-08-11 07:16:00,
2013-08-11 03:21:00,80.7,77.5,30.06,West,278,6.0,6.0,90,0.00,,,0.00,Wunderground v.1.15,2013-08-11 07:21:00,
2013-08-11 03:30:00,80.5,77.3,30.06,West,270,6.0,11.0,90,0.00,,,0.00,WUHU216DAVISVP2,2013-08-11 07:30:00,
2013-08-11 03:31:00,80.5,77.3,30.06,WNW,283,5.0,5.0,90,0.00,,,0.00,Wunderground v.1.15,2013-08-11 07:31:00,
2013-08-11 03:36:00,80.5,77.3,30.06,West,280,4.0,5.0,90,0.00,,,0.00,Wunderground v.1.15,2013-08-11 07:36:00,
2013-08-11 03:46:00,80.3,77.1,30.06,West,280,5.0,6.0,90,0.00,,,0.00,Wunderground v.1.15,2013-08-11 07:46:00,
2013-08-11 03:56:00,80.1,77.2,30.06,WNW,292,4.0,5.0,91,0.00,,,0.00,Wunderground v.1.15,2013-08-11 07:56:00,
2013-08-11 04:00:00,80.1,77.2,30.06,West,270,4.0,8.0,91,0.00,,,0.00,WUHU216DAVISVP2,2013-08-11 08:00:00,
2013-08-11 04:01:00,80.0,77.1,30.06,West,267,4.0,4.0,91,0.00,,,0.00,Wunderground v.1.15,2013-08-11 08:01:00,
2013-08-11 04:11:00,80.0,77.1,30.07,WSW,257,5.0,6.0,91,0.00,,,0.00,Wunderground v.1.15,2013-08-11 08:11:00,
2013-08-11 04:21:00,79.9,77.0,30.07,West,260,5.0,5.0,91,0.00,,,0.00,Wunderground v.1.15,2013-08-11 08:21:00,
2013-08-11 04:26:00,79.9,77.0,30.07,West,276,4.0,5.0,91,0.00,,,0.00,Wunderground v.1.15,2013-08-11 08:26:00,
2013-08-11 04:30:00,79.8,77.3,30.07,West,270,5.0,9.0,92,0.00,,,0.00,WUHU216DAVISVP2,2013-08-11 08:30:00,
2013-08-11 04:31:00,79.8,77.3,30.07,WSW,255,4.0,5.0,92,0.00,,,0.00,Wunderground v.1.15,2013-08-11 08:31:00,
2013-08-11 04:36:00,79.8,77.3,30.07,West,279,5.0,5.0,92,0.00,,,0.00,Wunderground v.1.15,2013-08-11 08:36:00,
2013-08-11 04:46:00,79.6,77.1,30.07,West,278,5.0,6.0,92,0.00,,,0.00,Wunderground v.1.15,2013-08-11 08:46:00,
2013-08-11 04:51:00,79.6,77.1,30.07,WNW,286,6.0,7.0,92,0.00,,,0.00,Wunderground v.1.15,2013-08-11 08:51:00,
2013-08-11 04:56:00,79.6,77.1,30.07,WNW,286,5.0,7.0,92,0.00,,,0.00,Wunderground v.1.15,2013-08-11 08:56:00,
2013-08-11 05:00:00,79.6,77.1,30.07,West,270,5.0,11.0,92,0.00,,,0.00,WUHU216DAVISVP2,2013-08-11 09:00:00,
2013-08-11 05:01:00,79.6,77.1,30.07,West,276,6.0,6.0,92,0.00,,,0.00,Wunderground v.1.15,2013-08-11 09:01:00,
2013-08-11 05:11:00,79.5,76.6,30.07,WNW,283,5.0,7.0,91,0.00,,,0.00,Wunderground v.1.15,2013-08-11 09:11:00,
2013-08-11 05:16:00,79.4,76.5,30.07,WNW,284,5.0,7.0,91,0.00,,,0.00,Wunderground v.1.15,2013-08-11 09:16:00,
2013-08-11 05:26:00,79.4,76.5,30.07,WNW,283,5.0,6.0,91,0.00,,,0.00,Wunderground v.1.15,2013-08-11 09:26:00,
2013-08-11 05:30:00,79.4,76.5,30.07,West,270,5.0,12.0,91,0.00,,,0.00,WUHU216DAVISVP2,2013-08-11 09:30:00,
2013-08-11 05:31:00,79.4,76.5,30.07,West,272,5.0,5.0,91,0.00,,,0.00,Wunderground v.1.15,2013-08-11 09:31:00,
2013-08-11 05:36:00,79.4,76.5,30.07,West,266,5.0,5.0,91,0.00,,,0.00,Wunderground v.1.15,2013-08-11 09:36:00,
2013-08-11 05:46:00,79.3,76.4,30.08,WNW,297,4.0,5.0,91,0.00,,,0.00,Wunderground v.1.15,2013-08-11 09:46:00,
2013-08-11 05:51:00,79.2,76.7,30.08,West,281,4.0,4.0,92,0.00,,,0.00,Wunderground v.1.15,2013-08-11 09:51:00,
2013-08-11 06:00:00,79.1,76.6,30.08,West,270,4.0,8.0,92,0.00,,,0.00,WUHU216DAVISVP2,2013-08-11 10:00:00,
2013-08-11 06:01:00,79.0,76.5,30.08,West,271,3.0,3.0,92,0.00,,,0.00,Wunderground v.1.15,2013-08-11 10:01:00,
2013-08-11 06:11:00,78.8,76.3,30.08,West,278,3.0,4.0,92,0.00,,,0.00,Wunderground v.1.15,2013-08-11 10:11:00,
2013-08-11 06:21:00,78.6,75.8,30.08,West,259,4.0,4.0,91,0.00,,,0.00,Wunderground v.1.15,2013-08-11 10:21:00,
2013-08-11 06:26:00,78.6,75.8,30.08,West,269,5.0,7.0,91,0.00,,,0.00,Wunderground v.1.15,2013-08-11 10:26:00,
2013-08-11 06:30:00,78.6,75.4,30.08,West,270,4.0,9.0,90,0.00,,,0.00,WUHU216DAVISVP2,2013-08-11 10:30:00,
2013-08-11 06:31:00,78.6,75.4,30.08,West,271,4.0,6.0,90,0.00,,,0.00,Wunderground v.1.15,2013-08-11 10:31:00,
2013-08-11 06:36:00,78.7,75.2,30.08,WSW,252,6.0,6.0,89,0.00,,,0.00,Wunderground v.1.15,2013-08-11 10:36:00,
2013-08-11 06:46:00,78.9,75.4,30.08,WSW,250,6.0,6.0,89,0.00,,,0.00,Wunderground v.1.15,2013-08-11 10:46:00,
2013-08-11 06:51:00,78.9,75.4,30.09,West,280,6.0,6.0,89,0.00,,,0.00,Wunderground v.1.15,2013-08-11 10:51:00,
2013-08-11 07:00:00,79.0,75.5,30.09,West,270,6.0,12.0,89,0.00,,,0.00,WUHU216DAVISVP2,2013-08-11 11:00:00,
2013-08-11 07:01:00,79.1,75.6,30.09,West,266,6.0,10.0,89,0.00,,,0.00,Wunderground v.1.15,2013-08-11 11:01:00,
2013-08-11 07:11:00,79.3,75.8,30.09,West,277,7.0,7.0,89,0.00,,,0.00,Wunderground v.1.15,2013-08-11 11:11:00,
2013-08-11 07:16:00,79.4,75.9,30.09,West,264,7.0,9.0,89,0.00,,,0.00,Wunderground v.1.15,2013-08-11 11:16:00,
2013-08-11 07:26:00,79.5,76.0,30.09,WSW,257,7.0,8.0,89,0.00,,,0.00,Wunderground v.1.15,2013-08-11 11:26:00,
2013-08-11 07:30:00,79.6,76.1,30.09,West,270,7.0,13.0,89,0.00,,,0.00,WUHU216DAVISVP2,2013-08-11 11:30:00,
2013-08-11 07:31:00,79.6,76.1,30.10,West,271,6.0,9.0,89,0.00,,,0.00,Wunderground v.1.15,2013-08-11 11:31:00,
2013-08-11 07:36:00,79.7,76.2,30.10,WSW,251,6.0,9.0,89,0.00,,,0.00,Wunderground v.1.15,2013-08-11 11:36:00,
2013-08-11 07:46:00,80.0,76.1,30.10,West,264,7.0,7.0,88,0.00,,,0.00,Wunderground v.1.15,2013-08-11 11:46:00,
2013-08-11 07:51:00,80.2,76.0,30.10,West,270,7.0,8.0,87,0.00,,,0.00,Wunderground v.1.15,2013-08-11 11:51:00,
2013-08-11 07:56:00,80.5,76.3,30.10,West,281,8.0,8.0,87,0.00,,,0.00,Wunderground v.1.15,2013-08-11 11:56:00,
2013-08-11 08:00:00,80.7,76.5,30.10,West,270,7.0,13.0,87,0.00,,,0.00,WUHU216DAVISVP2,2013-08-11 12:00:00,
2013-08-11 08:01:00,80.8,76.2,30.10,WSW,249,6.0,10.0,86,0.00,,,0.00,Wunderground v.1.15,2013-08-11 12:01:00,
2013-08-11 08:11:00,81.2,76.3,30.09,West,273,8.0,8.0,85,0.00,,,0.00,Wunderground v.1.15,2013-08-11 12:11:00,
2013-08-11 08:16:00,81.4,76.1,30.10,WNW,294,7.0,11.0,84,0.00,,,0.00,Wunderground v.1.15,2013-08-11 12:16:00,
2013-08-11 08:26:00,81.8,76.1,30.10,West,270,8.0,8.0,83,0.00,,,0.00,Wunderground v.1.15,2013-08-11 12:26:00,
2013-08-11 08:30:00,82.0,76.0,30.09,West,270,8.0,15.0,82,0.00,,,0.00,WUHU216DAVISVP2,2013-08-11 12:30:00,
2013-08-11 08:31:00,82.1,76.1,30.09,WNW,300,8.0,8.0,82,0.00,,,0.00,Wunderground v.1.15,2013-08-11 12:31:00,
2013-08-11 08:36:00,82.2,76.2,30.09,WNW,298,8.0,8.0,82,0.00,,,0.00,Wunderground v.1.15,2013-08-11 12:36:00,
2013-08-11 08:46:00,82.8,76.4,30.09,WNW,292,7.0,8.0,81,0.00,,,0.00,Wunderground v.1.15,2013-08-11 12:46:00,
2013-08-11 08:51:00,83.2,76.8,30.10,West,276,6.0,6.0,81,0.00,,,0.00,Wunderground v.1.15,2013-08-11 12:51:00,
2013-08-11 08:56:00,83.3,76.5,30.10,WSW,239,7.0,8.0,80,0.00,,,0.00,Wunderground v.1.15,2013-08-11 12:56:00,
2013-08-11 09:00:00,83.4,76.2,30.10,West,270,7.0,14.0,79,0.00,,,0.00,WUHU216DAVISVP2,2013-08-11 13:00:00,
2013-08-11 09:01:00,83.5,76.3,30.10,WSW,251,8.0,11.0,79,0.00,,,0.00,Wunderground v.1.15,2013-08-11 13:01:00,
2013-08-11 09:11:00,83.9,76.3,30.10,WNW,295,8.0,8.0,78,0.00,,,0.00,Wunderground v.1.15,2013-08-11 13:11:00,
2013-08-11 09:21:00,84.5,76.5,30.09,WNW,295,8.0,8.0,77,0.00,,,0.00,Wunderground v.1.15,2013-08-11 13:21:00,
2013-08-11 09:26:00,84.7,76.3,30.09,West,279,9.0,9.0,76,0.00,,,0.00,Wunderground v.1.15,2013-08-11 13:26:00,
2013-08-11 09:30:00,84.8,76.8,30.09,West,270,8.0,15.0,77,0.00,,,0.00,WUHU216DAVISVP2,2013-08-11 13:30:00,
2013-08-11 09:36:00,85.1,76.3,30.09,West,266,7.0,8.0,75,0.00,,,0.00,Wunderground v.1.15,2013-08-11 13:36:00,
2013-08-11 09:46:00,85.6,76.8,30.09,West,281,6.0,7.0,75,0.00,,,0.00,Wunderground v.1.15,2013-08-11 13:46:00,
2013-08-11 09:51:00,86.0,76.7,30.09,West,269,7.0,7.0,74,0.00,,,0.00,Wunderground v.1.15,2013-08-11 13:51:00,
2013-08-11 10:00:00,86.2,76.5,30.09,West,270,7.0,12.0,73,0.00,,,0.00,WUHU216DAVISVP2,2013-08-11 14:00:00,
2013-08-11 10:01:00,86.3,76.6,30.09,WNW,298,7.0,7.0,73,0.00,,,0.00,Wunderground v.1.15,2013-08-11 14:01:00,
2013-08-11 10:11:00,86.8,76.7,30.09,WNW,286,6.0,7.0,72,0.00,,,0.00,Wunderground v.1.15,2013-08-11 14:11:00,
2013-08-11 10:16:00,87.2,77.1,30.09,WSW,252,6.0,7.0,72,0.00,,,0.00,Wunderground v.1.15,2013-08-11 14:16:00,
2013-08-11 10:26:00,88.0,76.5,30.09,WNW,291,5.0,9.0,69,0.00,,,0.00,Wunderground v.1.15,2013-08-11 14:26:00,
2013-08-11 10:30:00,87.7,76.7,30.09,West,270,6.0,11.0,70,0.00,,,0.00,WUHU216DAVISVP2,2013-08-11 14:30:00,
2013-08-11 10:31:00,87.7,77.1,30.09,West,278,5.0,5.0,71,0.00,,,0.00,Wunderground v.1.15,2013-08-11 14:31:00,
2013-08-11 10:36:00,87.9,76.9,30.09,WNW,285,6.0,6.0,70,0.00,,,0.00,Wunderground v.1.15,2013-08-11 14:36:00,
2013-08-11 10:41:00,88.3,76.4,30.09,WSW,243,6.0,6.0,68,0.00,,,0.00,Wunderground v.1.15,2013-08-11 14:41:00,
2013-08-11 10:51:00,88.4,76.5,30.09,WNW,295,6.0,6.0,68,0.00,,,0.00,Wunderground v.1.15,2013-08-11 14:51:00,
2013-08-11 10:56:00,88.4,76.5,30.09,WSW,257,6.0,7.0,68,0.00,,,0.00,Wunderground v.1.15,2013-08-11 14:56:00,
2013-08-11 11:00:00,88.9,76.5,30.09,West,270,6.0,11.0,67,0.00,,,0.00,WUHU216DAVISVP2,2013-08-11 15:00:00,
2013-08-11 11:01:00,88.9,76.5,30.09,West,278,6.0,6.0,67,0.00,,,0.00,Wunderground v.1.15,2013-08-11 15:01:00,
2013-08-11 11:11:00,89.2,76.4,30.09,WNW,293,6.0,10.0,66,0.00,,,0.00,Wunderground v.1.15,2013-08-11 15:11:00,
2013-08-11 11:21:00,89.5,77.5,30.08,West,263,6.0,6.0,68,0.00,,,0.00,Wunderground v.1.15,2013-08-11 15:21:00,
2013-08-11 11:26:00,89.6,78.5,30.08,West,281,5.0,6.0,70,0.00,,,0.00,Wunderground v.1.15,2013-08-11 15:26:00,
2013-08-11 11:30:00,89.6,78.1,30.08,West,270,6.0,12.0,69,0.00,,,0.00,WUHU216DAVISVP2,2013-08-11 15:30:00,
2013-08-11 11:31:00,89.5,77.1,30.08,West,270,5.0,8.0,67,0.00,,,0.00,Wunderground v.1.15,2013-08-11 15:31:00,
2013-08-11 11:36:00,89.8,78.3,30.08,West,262,6.0,8.0,69,0.00,,,0.00,Wunderground v.1.15,2013-08-11 15:36:00,
2013-08-11 11:41:00,89.8,78.7,30.08,WNW,283,7.0,9.0,70,0.00,,,0.00,Wunderground v.1.15,2013-08-11 15:41:00,
2013-08-11 11:46:00,89.8,77.8,30.08,WNW,288,7.0,9.0,68,0.00,,,0.00,Wunderground v.1.15,2013-08-11 15:46:00,
2013-08-11 11:56:00,89.4,77.9,30.08,SW,234,6.0,8.0,69,0.00,,,0.00,Wunderground v.1.15,2013-08-11 15:56:00,
2013-08-11 12:00:00,89.4,78.8,30.08,WSW,248,6.0,13.0,71,0.00,,,0.00,WUHU216DAVISVP2,2013-08-11 16:00:00,
2013-08-11 12:01:00,89.6,78.5,30.08,SW,217,6.0,6.0,70,0.00,,,0.00,Wunderground v.1.15,2013-08-11 16:01:00,
2013-08-11 12:11:00,90.0,78.5,30.08,SW,236,6.0,8.0,69,0.00,,,0.00,Wunderground v.1.15,2013-08-11 16:11:00,
2013-08-11 12:16:00,89.4,78.3,30.08,WSW,238,7.0,8.0,70,0.00,,,0.00,Wunderground v.1.15,2013-08-11 16:16:00,
2013-08-11 12:26:00,89.3,79.1,30.07,WSW,247,8.0,9.0,72,0.00,,,0.00,Wunderground v.1.15,2013-08-11 16:26:00,
2013-08-11 12:30:00,88.6,78.4,30.07,WSW,248,8.0,15.0,72,0.00,,,0.00,WUHU216DAVISVP2,2013-08-11 16:30:00,
2013-08-11 12:31:00,88.3,79.0,30.07,SW,227,9.0,9.0,74,0.00,,,0.00,Wunderground v.1.15,2013-08-11 16:31:00,
2013-08-11 12:36:00,88.2,78.4,30.07,West,259,9.0,9.0,73,0.00,,,0.00,Wunderground v.1.15,2013-08-11 16:36:00,
2013-08-11 12:41:00,87.5,78.6,30.07,SSW,200,9.0,11.0,75,0.00,,,0.00,Wunderground v.1.15,2013-08-11 16:41:00,
2013-08-11 12:46:00,87.0,78.5,30.07,SSE,165,10.0,11.0,76,0.00,,,0.00,Wunderground v.1.15,2013-08-11 16:46:00,
2013-08-11 12:56:00,87.2,78.3,30.07,SW,223,8.0,10.0,75,0.00,,,0.00,Wunderground v.1.15,2013-08-11 16:56:00,
2013-08-11 13:00:00,87.5,79.0,30.07,SW,225,9.0,17.0,76,0.00,,,0.00,WUHU216DAVISVP2,2013-08-11 17:00:00,
2013-08-11 13:01:00,87.7,79.2,30.07,WSW,256,9.0,17.0,76,0.00,,,0.00,Wunderground v.1.15,2013-08-11 17:01:00,
2013-08-11 13:11:00,85.1,72.9,30.07,West,277,14.0,14.0,67,0.40,,,0.03,Wunderground v.1.15,2013-08-11 17:11:00,
2013-08-11 13:21:00,85.9,75.8,30.06,SSE,157,4.0,10.0,72,0.07,,,0.05,Wunderground v.1.15,2013-08-11 17:21:00,
2013-08-11 13:26:00,86.7,79.4,30.06,SW,225,6.0,10.0,79,0.05,,,0.05,Wunderground v.1.15,2013-08-11 17:26:00,
2013-08-11 13:30:00,86.7,79.4,30.06,WSW,248,9.0,27.0,79,0.00,,,0.00,WUHU216DAVISVP2,2013-08-11 17:30:00,
2013-08-11 13:31:00,86.5,79.6,30.06,SW,229,9.0,9.0,80,0.00,,,0.05,Wunderground v.1.15,2013-08-11 17:31:00,
2013-08-11 13:36:00,86.4,79.1,30.06,West,262,9.0,10.0,79,0.00,,,0.05,Wunderground v.1.15,2013-08-11 17:36:00,
2013-08-11 13:41:00,86.4,79.1,30.06,SSW,202,9.0,9.0,79,0.00,,,0.05,Wunderground v.1.15,2013-08-11 17:41:00,
2013-08-11 13:51:00,86.5,78.8,30.06,SW,232,9.0,9.0,78,0.00,,,0.05,Wunderground v.1.15,2013-08-11 17:51:00,
2013-08-11 13:56:00,87.0,79.3,30.05,SW,233,10.0,14.0,78,0.00,,,0.05,Wunderground v.1.15,2013-08-11 17:56:00,
2013-08-11 14:00:00,87.3,79.6,30.05,WSW,248,9.0,17.0,78,0.05,,,0.05,WUHU216DAVISVP2,2013-08-11 18:00:00,
2013-08-11 14:01:00,87.4,79.7,30.05,SW,228,9.0,11.0,78,0.00,,,0.05,Wunderground v.1.15,2013-08-11 18:01:00,
2013-08-11 14:11:00,87.6,79.5,30.05,SW,233,11.0,13.0,77,0.00,,,0.05,Wunderground v.1.15,2013-08-11 18:11:00,
2013-08-11 14:16:00,87.4,79.3,30.05,SW,229,11.0,14.0,77,0.00,,,0.05,Wunderground v.1.15,2013-08-11 18:16:00,
2013-08-11 14:30:00,87.5,79.4,30.04,SW,225,11.0,20.0,77,0.00,,,0.05,WUHU216DAVISVP2,2013-08-11 18:30:00,
2013-08-11 14:31:00,87.5,79.4,30.04,SW,221,11.0,11.0,77,0.00,,,0.05,Wunderground v.1.15,2013-08-11 18:31:00,
2013-08-11 14:36:00,87.2,79.5,30.04,SW,229,11.0,11.0,78,0.00,,,0.05,Wunderground v.1.15,2013-08-11 18:36:00,
2013-08-11 14:46:00,87.1,79.4,30.04,SW,214,12.0,13.0,78,0.00,,,0.05,Wunderground v.1.15,2013-08-11 18:46:00,
2013-08-11 14:51:00,87.5,79.8,30.04,South,184,11.0,11.0,78,0.00,,,0.05,Wunderground v.1.15,2013-08-11 18:51:00,
2013-08-11 14:56:00,87.7,80.4,30.04,South,191,10.0,13.0,79,0.00,,,0.05,Wunderground v.1.15,2013-08-11 18:56:00,
2013-08-11 15:00:00,87.8,79.3,30.04,SW,225,11.0,18.0,76,0.00,,,0.05,WUHU216DAVISVP2,2013-08-11 19:00:00,
2013-08-11 15:01:00,87.8,79.3,30.04,SW,214,11.0,17.0,76,0.00,,,0.05,Wunderground v.1.15,2013-08-11 19:01:00,
2013-08-11 15:11:00,87.9,79.4,30.03,West,259,12.0,12.0,76,0.00,,,0.05,Wunderground v.1.15,2013-08-11 19:11:00,
2013-08-11 15:21:00,87.3,79.6,30.02,SSW,193,13.0,13.0,78,0.00,,,0.05,Wunderground v.1.15,2013-08-11 19:21:00,
2013-08-11 15:26:00,87.7,79.6,30.02,SW,220,11.0,15.0,77,0.00,,,0.05,Wunderground v.1.15,2013-08-11 19:26:00,
2013-08-11 15:30:00,87.6,79.5,30.02,SW,225,12.0,22.0,77,0.00,,,0.05,WUHU216DAVISVP2,2013-08-11 19:30:00,
2013-08-11 15:31:00,87.7,79.2,30.03,WSW,258,11.0,11.0,76,0.00,,,0.05,Wunderground v.1.15,2013-08-11 19:31:00,
2013-08-11 15:36:00,88.5,80.0,30.03,SW,218,10.0,11.0,76,0.00,,,0.05,Wunderground v.1.15,2013-08-11 19:36:00,
2013-08-11 15:41:00,88.4,79.1,30.03,SW,229,10.0,13.0,74,0.00,,,0.05,Wunderground v.1.15,2013-08-11 19:41:00,
2013-08-11 15:51:00,86.9,79.6,30.04,WSW,245,12.0,14.0,79,0.00,,,0.05,Wunderground v.1.15,2013-08-11 19:51:00,
2013-08-11 15:56:00,86.8,79.9,30.03,SW,221,12.0,14.0,80,0.00,,,0.05,Wunderground v.1.15,2013-08-11 19:56:00,
2013-08-11 16:00:00,86.8,79.9,30.04,SW,225,11.0,19.0,80,0.00,,,0.05,WUHU216DAVISVP2,2013-08-11 20:00:00,
2013-08-11 16:02:00,87.0,80.1,30.04,WSW,248,11.0,11.0,80,0.00,,,0.05,Wunderground v.1.15,2013-08-11 20:02:00,
2013-08-11 16:11:00,87.2,79.9,30.04,West,276,9.0,9.0,79,0.00,,,0.05,Wunderground v.1.15,2013-08-11 20:11:00,
2013-08-11 16:21:00,82.3,75.5,30.06,ENE,63,12.0,17.0,80,0.00,,,0.05,Wunderground v.1.15,2013-08-11 20:21:00,
2013-08-11 16:26:00,81.6,75.2,30.05,NNE,32,19.0,19.0,81,0.00,,,0.05,Wunderground v.1.15,2013-08-11 20:26:00,
2013-08-11 16:30:00,80.8,73.7,30.05,NE,45,15.0,38.0,79,0.00,,,0.05,WUHU216DAVISVP2,2013-08-11 20:30:00,
2013-08-11 16:31:00,80.0,73.3,30.05,NE,51,24.0,24.0,80,0.00,,,0.05,Wunderground v.1.15,2013-08-11 20:31:00,
2013-08-11 16:41:00,78.3,75.1,30.05,ENE,62,15.0,15.0,90,0.25,,,0.12,Wunderground v.1.15,2013-08-11 20:41:00,
2013-08-11 16:46:00,78.6,75.4,30.05,NE,41,6.0,15.0,90,0.08,,,0.12,Wunderground v.1.15,2013-08-11 20:46:00,
2013-08-11 16:56:00,80.1,76.6,30.05,East,82,4.0,6.0,89,0.00,,,0.12,Wunderground v.1.15,2013-08-11 20:56:00,
2013-08-11 17:00:00,80.2,76.3,30.04,NE,45,8.0,32.0,88,0.00,,,0.05,WUHU216DAVISVP2,2013-08-11 21:00:00,
2013-08-11 17:01:00,80.4,76.5,30.04,ESE,106,4.0,4.0,88,0.00,,,0.12,Wunderground v.1.15,2013-08-11 21:01:00,
2013-08-11 17:06:00,80.9,76.7,30.04,East,91,4.0,8.0,87,0.00,,,0.12,Wunderground v.1.15,2013-08-11 21:06:00,
2013-08-11 17:16:00,81.4,76.8,30.03,SE,124,4.0,6.0,86,0.00,,,0.12,Wunderground v.1.15,2013-08-11 21:16:00,
2013-08-11 17:26:00,82.8,77.1,30.03,South,172,4.0,6.0,83,0.00,,,0.12,Wunderground v.1.15,2013-08-11 21:26:00,
2013-08-11 17:30:00,83.2,76.8,30.02,ESE,113,4.0,10.0,81,0.07,,,0.12,WUHU216DAVISVP2,2013-08-11 21:30:00,
2013-08-11 17:31:00,83.4,77.3,30.02,SSE,168,4.0,4.0,82,0.00,,,0.12,Wunderground v.1.15,2013-08-11 21:31:00,
2013-08-11 17:36:00,83.8,77.0,30.02,SSE,160,4.0,5.0,80,0.00,,,0.12,Wunderground v.1.15,2013-08-11 21:36:00,
2013-08-11 17:46:00,84.9,77.3,30.02,WSW,255,4.0,5.0,78,0.00,,,0.12,Wunderground v.1.15,2013-08-11 21:46:00,
2013-08-11 17:51:00,85.4,77.8,30.02,WSW,248,5.0,5.0,78,0.00,,,0.12,Wunderground v.1.15,2013-08-11 21:51:00,
2013-08-11 17:56:00,85.8,78.1,30.02,WSW,237,6.0,8.0,78,0.00,,,0.12,Wunderground v.1.15,2013-08-11 21:56:00,
2013-08-11 18:00:00,85.7,78.0,30.02,WSW,248,5.0,11.0,78,0.00,,,0.12,WUHU216DAVISVP2,2013-08-11 22:00:00,
2013-08-11 18:06:00,85.7,77.7,30.02,SW,215,7.0,9.0,77,0.00,,,0.12,Wunderground v.1.15,2013-08-11 22:06:00,
2013-08-11 18:16:00,85.9,78.2,30.01,SSW,206,6.0,11.0,78,0.00,,,0.12,Wunderground v.1.15,2013-08-11 22:16:00,
2013-08-11 18:26:00,85.9,78.6,30.01,SSW,209,7.0,8.0,79,0.00,,,0.12,Wunderground v.1.15,2013-08-11 22:26:00,
2013-08-11 18:30:00,85.8,78.5,30.01,SW,225,7.0,13.0,79,0.00,,,0.12,WUHU216DAVISVP2,2013-08-11 22:30:00,
2013-08-11 18:36:00,86.0,79.1,30.01,SW,229,7.0,8.0,80,0.00,,,0.12,Wunderground v.1.15,2013-08-11 22:36:00,
2013-08-11 18:46:00,86.1,79.6,30.01,West,272,6.0,8.0,81,0.00,,,0.12,Wunderground v.1.15,2013-08-11 22:46:00,
2013-08-11 18:51:00,85.9,79.8,30.01,WSW,238,8.0,8.0,82,0.00,,,0.12,Wunderground v.1.15,2013-08-11 22:51:00,
2013-08-11 18:56:00,85.7,79.9,30.01,SW,229,9.0,9.0,83,0.00,,,0.12,Wunderground v.1.15,2013-08-11 22:56:00,
2013-08-11 19:00:00,85.7,79.9,30.02,SW,225,7.0,15.0,83,0.00,,,0.12,WUHU216DAVISVP2,2013-08-11 23:00:00,
2013-08-11 19:01:00,85.6,80.2,30.01,WSW,238,8.0,10.0,84,0.00,,,0.12,Wunderground v.1.15,2013-08-11 23:01:00,
2013-08-11 19:11:00,85.3,79.9,30.02,WSW,256,9.0,9.0,84,0.00,,,0.12,Wunderground v.1.15,2013-08-11 23:11:00,
2013-08-11 19:16:00,85.0,80.0,30.02,WSW,252,10.0,10.0,85,0.00,,,0.12,Wunderground v.1.15,2013-08-11 23:16:00,
2013-08-11 19:26:00,84.8,79.4,30.02,WSW,250,10.0,13.0,84,0.00,,,0.12,Wunderground v.1.15,2013-08-11 23:26:00,
2013-08-11 19:30:00,84.9,79.9,30.02,WSW,248,9.0,16.0,85,0.00,,,0.12,WUHU216DAVISVP2,2013-08-11 23:30:00,
2013-08-11 19:36:00,84.8,79.4,30.02,WSW,248,7.0,8.0,84,0.00,,,0.12,Wunderground v.1.15,2013-08-11 23:36:00,
2013-08-11 19:46:00,84.4,79.0,30.03,SSE,164,8.0,12.0,84,0.00,,,0.12,Wunderground v.1.15,2013-08-11 23:46:00,
2013-08-11 19:51:00,84.3,78.9,30.03,West,263,7.0,9.0,84,0.00,,,0.12,Wunderground v.1.15,2013-08-11 23:51:00,
2013-08-11 19:56:00,84.1,78.7,30.03,WSW,237,8.0,12.0,84,0.00,,,0.12,Wunderground v.1.15,2013-08-11 23:56:00,
2013-08-11 20:00:00,84.1,78.7,30.03,WSW,248,8.0,14.0,84,0.00,,,0.12,WUHU216DAVISVP2,2013-08-12 00:00:00,
2013-08-11 20:06:00,84.0,79.0,30.03,WSW,238,8.0,9.0,85,0.00,,,0.12,Wunderground v.1.15,2013-08-12 00:06:00,
2013-08-11 20:11:00,83.9,78.9,30.04,WSW,240,7.0,9.0,85,0.00,,,0.12,Wunderground v.1.15,2013-08-12 00:11:00,
2013-08-11 20:21:00,83.7,79.1,30.04,WSW,239,8.0,11.0,86,0.00,,,0.12,Wunderground v.1.15,2013-08-12 00:21:00,
2013-08-11 20:26:00,83.7,79.1,30.04,SW,219,9.0,11.0,86,0.00,,,0.12,Wunderground v.1.15,2013-08-12 00:26:00,
2013-08-11 20:30:00,83.7,79.1,30.04,WSW,248,8.0,15.0,86,0.00,,,0.12,WUHU216DAVISVP2,2013-08-12 00:30:00,
2013-08-11 20:36:00,83.7,79.1,30.04,West,266,9.0,9.0,86,0.00,,,0.12,Wunderground v.1.15,2013-08-12 00:36:00,
2013-08-11 20:41:00,83.7,79.1,30.04,WSW,249,8.0,8.0,86,0.00,,,0.12,Wunderground v.1.15,2013-08-12 00:41:00,
2013-08-11 20:46:00,83.7,79.1,30.04,SW,231,7.0,8.0,86,0.00,,,0.12,Wunderground v.1.15,2013-08-12 00:46:00,
2013-08-11 20:51:00,83.7,79.1,30.04,WSW,241,7.0,10.0,86,0.00,,,0.12,Wunderground v.1.15,2013-08-12 00:51:00,
2013-08-11 21:00:00,83.7,79.1,30.04,WSW,248,8.0,15.0,86,0.00,,,0.12,WUHU216DAVISVP2,2013-08-12 01:00:00,
2013-08-11 21:01:00,83.7,79.1,30.04,SSW,210,8.0,8.0,86,0.00,,,0.12,Wunderground v.1.15,2013-08-12 01:01:00,
2013-08-11 21:11:00,83.7,79.4,30.03,SW,222,8.0,9.0,87,0.00,,,0.12,Wunderground v.1.15,2013-08-12 01:11:00,
2013-08-11 21:21:00,83.6,79.3,30.03,WNW,286,9.0,9.0,87,0.00,,,0.12,Wunderground v.1.15,2013-08-12 01:21:00,
2013-08-11 21:30:00,83.6,79.7,30.02,SW,225,9.0,16.0,88,0.00,,,0.12,WUHU216DAVISVP2,2013-08-12 01:30:00,
2013-08-11 21:31:00,83.6,79.7,30.02,SW,230,9.0,16.0,88,0.00,,,0.12,Wunderground v.1.15,2013-08-12 01:31:00,
2013-08-11 21:56:00,83.6,79.0,30.03,SW,225,11.0,11.0,86,0.00,,,0.12,Wunderground v.1.15,2013-08-12 01:56:00,
2013-08-11 22:00:00,83.6,79.0,30.03,WSW,248,9.0,19.0,86,0.00,,,0.12,WUHU216DAVISVP2,2013-08-12 02:00:00,
2013-08-11 22:01:00,83.6,79.0,30.03,West,260,10.0,10.0,86,0.00,,,0.12,Wunderground v.1.15,2013-08-12 02:01:00,
2013-08-11 22:11:00,83.6,78.6,30.03,SW,225,11.0,11.0,85,0.00,,,0.12,Wunderground v.1.15,2013-08-12 02:11:00,
2013-08-11 22:16:00,83.6,78.6,30.03,WSW,250,11.0,11.0,85,0.00,,,0.12,Wunderground v.1.15,2013-08-12 02:16:00,
2013-08-11 22:26:00,83.6,78.6,30.04,SW,229,11.0,11.0,85,0.00,,,0.12,Wunderground v.1.15,2013-08-12 02:26:00,
2013-08-11 22:30:00,83.6,78.2,30.04,WSW,248,10.0,19.0,84,0.00,,,0.12,WUHU216DAVISVP2,2013-08-12 02:30:00,
2013-08-11 22:36:00,83.6,78.2,30.03,WSW,250,11.0,12.0,84,0.00,,,0.12,Wunderground v.1.15,2013-08-12 02:36:00,
2013-08-11 22:41:00,83.6,78.2,30.03,WSW,244,11.0,12.0,84,0.00,,,0.12,Wunderground v.1.15,2013-08-12 02:41:00,
2013-08-11 22:51:00,83.6,78.2,30.04,SW,217,12.0,12.0,84,0.00,,,0.12,Wunderground v.1.15,2013-08-12 02:51:00,
2013-08-11 22:56:00,83.6,78.6,30.04,SW,226,11.0,12.0,85,0.00,,,0.12,Wunderground v.1.15,2013-08-12 02:56:00,
2013-08-11 23:00:00,83.5,78.5,30.04,WSW,248,11.0,19.0,85,0.00,,,0.12,WUHU216DAVISVP2,2013-08-12 03:00:00,
2013-08-11 23:01:00,83.5,78.5,30.04,WSW,240,10.0,14.0,85,0.00,,,0.12,Wunderground v.1.15,2013-08-12 03:01:00,
2013-08-11 23:11:00,83.4,78.4,30.04,SSW,212,12.0,12.0,85,0.00,,,0.12,Wunderground v.1.15,2013-08-12 03:11:00,
2013-08-11 23:16:00,83.3,78.3,30.04,West,262,10.0,12.0,85,0.00,,,0.12,Wunderground v.1.15,2013-08-12 03:16:00,
2013-08-11 23:21:00,83.3,78.7,30.04,SW,229,10.0,10.0,86,0.00,,,0.12,Wunderground v.1.15,2013-08-12 03:21:00,
2013-08-11 23:30:00,83.3,78.7,30.04,WSW,248,11.0,20.0,86,0.00,,,0.12,WUHU216DAVISVP2,2013-08-12 03:30:00,
2013-08-11 23:31:00,83.3,78.7,30.04,West,265,11.0,13.0,86,0.00,,,0.12,Wunderground v.1.15,2013-08-12 03:31:00,
2013-08-11 23:36:00,83.2,78.6,30.04,West,259,10.0,21.0,86,0.00,,,0.12,Wunderground v.1.15,2013-08-12 03:36:00,
2013-08-11 23:41:00,83.2,78.6,30.05,WSW,245,10.0,14.0,86,0.00,,,0.12,Wunderground v.1.15,2013-08-12 03:41:00,
2013-08-11 23:46:00,83.2,78.6,30.05,WSW,237,11.0,14.0,86,0.00,,,0.12,Wunderground v.1.15,2013-08-12 03:46:00,
2013-08-11 23:56:00,83.0,78.4,30.05,West,264,10.0,11.0,86,0.00,,,0.12,Wunderground v.1.15,2013-08-12 03:56:00,